User: anonymous   Login
Location: Toronto
(43.6672°N, 79.4170°W)
Time: 02:09:06
(UTC-05:00)
Language:

ISS - Orbit

View from above orbital plane
View from above orbital plane
View from above satellite
View from above satellite

Ground track
Ground track

The orbit data is extracted from the following two-line orbital elements,

1 25544U 98067A   14327.10418231  .00027544  00000-0  46497-3 0  4470
2 25544 051.6478 031.7152 0007020 057.3597 023.8432 15.51399377915981
Epoch (UTC): 23 November 2014 02:30:01
Eccentricity: 0.0007020
inclination: 51.6478°
perigee height: 408 km
apogee height: 417 km
right ascension of ascending node: 31.7152°
argument of perigee: 57.3597°
revolutions per day: 15.51399377
mean anomaly at epoch: 23.8432°
orbit number at epoch: 91598

The dashed part of the orbit path shows where the satellite is in the earth's shadow,  

DLR